Regional Weather Roundup
Issued by NWS Grand Forks, ND

Home | Current Version | Previous Version | Text Only | Print | Product List | Glossary On
Versions: 1 2 3 4 5 6 7 8 9 10 11 12 13 14 15 16 17 18 19 20 21 22 23 24 25 26 27 28 29 30 31 32 33 34 35 36 37 38 39 40 41 42 43 44 45 46 47 48 49 50
000
ASUS43 KFGF 020431
RWRFGF
PRAIRIE TO PINES  WEATHER ROUNDUP
NATIONAL WEATHER SERVICE EASTERN NORTH DAKOTA/GRAND FORKS ND
1100 PM CDT WED APR 01 2015

 **SATELLITE DATA USED TO AUGMENT SKY COVER AT AUTOMATED STATIONS**
 *****  WEATHER ACROSS EASTERN NORTH DAKOTA  *****

CITY           SKY/WX    TMP DP  RH WIND       PRES   REMARKS
GRAND FORKS    MOCLDY    45  34  65 W10       29.57S
GRAND FRKS AFB PTCLDY    46  33  61 NW15      29.58S
GRAND FRKS NWS   N/A     43 N/A N/A NW13        N/A
DEVILS LAKE    CLEAR     37  28  70 W13       29.60F
FARGO          CLEAR     50  34  54 W13       29.61R
WAHPETON ARPT  CLEAR     45  32  61 NW7       29.65R
$$

 ***** WEATHER ACROSS CENTRAL AND WESTERN NORTH DAKOTA  *****

CITY           SKY/WX    TMP DP  RH WIND       PRES   REMARKS
BISMARCK       PTCLDY    44  24  45 W12       29.74S
MINOT          CLEAR     43  23  45 SW15      29.63F
JAMESTOWN      PTCLDY    42  28  57 W13       29.64F
MINOT AFB      PTCLDY    36  27  70 W10       29.63S
GARRISON         N/A     37  25  61 W9        29.68S
WILLISTON      CLEAR     42  24  49 SW10      29.66F
DICKINSON      CLEAR     32  20  61 SW8       29.73F WCI  25
HETTINGER      CLEAR     28  18  66 CALM      29.80R
$$

 *****  OTHER AIRPORT OBSERVATIONS IN OUR AREA  *****

CITY           SKY/WX    TMP DP  RH WIND       PRES   REMARKS
WALHALLA         N/A     45  32  61 W9G16     29.55F
GRAFTON AIRPOR NOT AVBL
VALLEY CITY AR FAIR      43  30  61 W13       29.64R
CANDO          FAIR      32  28  86 W8        29.60F WCI  25
CAVALIER APRT  FAIR      45  34  65 W15       29.55S
GWINNER        CLEAR     50  30  46 W16         N/A
SHEYENNE NWR     N/A     49  33  54 NW7       29.95S
ROLLA          MOCLDY    41  27  56 W13       29.59S
 ***** THE ABOVE OBSERVATIONS ARE NON NWS ARE NOT QUALITY
       CONTROLLED AND MAY MIS-REPORT RAIN FOR SNOW...
$$

  *****  WEATHER ACROSS NORTHERN MINNESOTA  *****

CITY           SKY/WX    TMP DP  RH WIND       PRES   REMARKS
FLAG ISLAND    CLOUDY    46  39  76 W23G32    29.42R
WARROAD        MOCLDY    46  39  76 W14G21    29.48R
ROSEAU         PTCLDY    46  37  71 W17       29.49R
HALLOCK        PTCLDY    39  36  87 W7        29.53F
THF RVR FALLS  PTCLDY    46  37  71 W12       29.56R
BAUDETTE       MOCLDY    49  41  74 W21G31    29.44R
WASKISH        MOCLDY    43  39  87 W14       29.49R
CROOKSTON      MOCLDY    45  36  70 NW15      29.58R
STEPHEN NDAWN    N/A     46  37  71 W13         N/A
GREENBUSH NDAW   N/A     45  37  76 W12         N/A
$$
  *****  WEATHER ACROSS CENTRAL AND WEST MINNESOTA  *****

CITY           SKY/WX    TMP DP  RH WIND       PRES   REMARKS
FOSSTON        CLEAR     45  36  70 W10       29.59R
BEMIDJI        CLOUDY    48  40  73 W13       29.55R
PARK RAPIDS    CLEAR     49  38  65 NW15G24   29.55R
ELBOW LAKE     FAIR      49  36  61 NW13G21   29.64R
WADENA         CLEAR     46  36  66 NW18G31   29.59R
DETROIT LAKES  CLEAR     46  36  66 NW14      29.63R
MOORHEAD       CLEAR     50  36  57 NW9       29.63R
FERGUS FALLS   CLEAR     48  32  53 NW12      29.65R
MORRIS MN      PTCLDY    52  36  54 NW20      29.62R
STAPLES        PTCLDY    48  36  61 NW20G29   29.58R
$$
  *****  WEATHER ELSEWHERE ACROSS MINNESOTA  *****

CITY           SKY/WX    TMP DP  RH WIND       PRES   REMARKS
DULUTH         MOCLDY    44  39  82 SW10      29.47R
INTRNTL FALLS  CLEAR     50  38  63 W12       29.42R
ELY            CLEAR     36  30  80 CALM      29.42S
CLOQUET        MOCLDY    36  32  87 W5        29.49R
WHEATON        CLEAR     48  34  57 NW9       29.68R
BRAINERD       PTCLDY    54  41  61 NW9       29.54R
HIBBING        CLEAR     33  29  85 W5        29.46
ALEXANDRIA     CLEAR     52  37  56 NW17G26   29.61R
SAINT CLOUD    CLOUDY    55  41  59 W9        29.57R
MINNEAPOLIS    CLOUDY    59  54  83 SW9       29.56R
$$

  *****  WEATHER ACROSS SOUTH DAKOTA  *****

CITY           SKY/WX    TMP DP  RH WIND       PRES   REMARKS
SIOUX FALLS    CLOUDY    59  29  31 N18       29.66R
BROOKINGS      MOCLDY    52  30  43 NW12      29.69R
WATERTOWN      PTCLDY    51  30  44 N17       29.68R
HURON          CLEAR     49  27  42 NW14      29.70R
SISSETON         N/A     51  32  48 NW18      29.65R
ABERDEEN       PTCLDY    50  29  44 NW13      29.70R
MITCHELL       PTCLDY    55  27  34 NW18      29.72R
PIERRE         MOCLDY    47  23  38 NW10      29.77S
MOBRIDGE       PTCLDY    41  25  53 NW7       29.74R
RAPID CITY     PTCLDY    38  14  37 W5        29.86R
$$

  *****  SOME WEATHER IN NEARBY STATES *****

CITY           SKY/WX    TMP DP  RH WIND       PRES   REMARKS
GLASGOW MT     PTCLDY    42  22  44 NW25G40   29.72R
GREAT FALLS MT PTCLDY    37  15  40 W16       29.92R
CHEYENNE WY    PTCLDY    36  25  64 N9        29.91R
SCOTTSBLUFF NE MOCLDY    40  24  53 W9        29.89R
OMAHA NE       TSTM      58  53  84 N20       29.66R
DES MOINES IA  CLOUDY    64  52  64 S16       29.64F
DAVENPORT IA   PTCLDY    64  36  35 S26G36    29.73F
CHICAGO IL     PTCLDY    60  37  42 S18G25    29.82F
EAU CLAIRE WI  TSTM      62  47  57 W15G25    29.61R
LA CROSSE WI   MOCLDY    68  36  30 S18       29.60R
$$

  *****  SOME NATIONAL WEATHER *****

CITY           SKY/WX    TMP DP  RH WIND       PRES   REMARKS
LA GUARDIA NY  CLEAR     43  20  39 NW5       30.21S
RALEIGH NC     PTCLDY    53  30  41 SE7       30.25S
ATLANTA GA     PTCLDY    64  49  57 CALM      30.12S
NEW ORLEANS LA MOCLDY    72  66  81 SE6       30.05S
OKLAHOMA CITY  PTCLDY    69  60  73 S15       29.74R
ALBUQUERQUE NM PTCLDY    62  21  20 W6        29.92R
SALT LAKE CITY PTCLDY    46   1  15 CALM      29.98F
LOS ANGELES CA CLEAR     60  48  64 W20       29.94R
BOISE ID       CLEAR     41  22  46 NW7       30.11R
SEATTLE WA     RAIN      47  42  83 CALM      30.31R
$$

*** WEATHER ACROSS MANITOBA...SASKATCHEWAN AND ONTARIO ***
                ***ONTARIO***

CITY           SKY/WX    TMP DP  RH WIND       PRES   REMARKS
GERALDTON      CLOUDY    34  32  93 SE9       29.56F
THUNDER BAY    CLOUDY    36  32  87 NE10      29.48F
SIOUX LOOKOUT  PTCLDY    36  28  75 SE7       29.37F
TORONTO        MOCLDY    36  19  51 NE5       30.10R
BIG TROUT LK   LGT SNOW  32  32 100 E5        29.54F
PICKLE LAKE    NOT AVBL
DRYDEN         CLEAR     39  30  70 S8        29.35F
KENORA         PTCLDY    46  34  61 W14G25    29.39
$$
                *** MANITOBA***

CITY           SKY/WX    TMP DP  RH WIND       PRES   REMARKS
BRANDON        CLEAR     36  30  80 W9        29.53F
DAUPHIN        PTCLDY    37  32  81 W9        29.47F
ISLAND LAKE    LGT SNOW  32  32 100 NE10      29.43F WCI  24
PILOT MOUND      N/A     37  30  75 W8          N/A
THE PAS        LGT SNOW  21  19  93 NE10G26   29.54R VSB 3/4 WCI  10
THOMPSON       LGT SNOW   9   3  78 NE18G25   29.76R DRFTSNOWWCI -10
WINNIPEG       CLEAR     41  36  81 W13       29.49S
LYNN LAKE      MOCLDY     7   0  72 NE21      29.86S WCI -13
CHURCHILL      CLEAR     -9 -13  84 N8        30.06F WCI -26
GILLAM         LGT SNOW   5   0  78 NE18G29   29.82S VSB 3/4 WCI -15
$$
                ***SASKATCHEWAN***

CITY           SKY/WX    TMP DP  RH WIND       PRES   REMARKS
ESTEVAN        PTCLDY    39  28  65 SW12      29.58F
KINDERSLEY     LGT SNOW  30  28  93 NW26G37   29.63R WCI  16
LLOYDMINSTER   FLURRIES  30  25  80 N32G43    29.78R WCI  15
PRINCE ALBERT  LGT SNOW  30  28  93 N18G32    29.54R WCI  18
REGINA         CLOUDY    39  28  65 W26G32    29.49F
YORKTON        PTCLDY    36  28  75 SW7       29.46F
N. BATTLEFORD  FLURRIES  28  25  86 N26G37    29.66R WCI  13
LA RONGE       LGT SNOW  19  16  86 N21G30    29.78R DRFTSNOWWCI   3
SASKATOON      LGT SNOW  32  30  93 N25G38    29.51R BLWGSNOWWCI  19
SWIFT CURRENT  LGT SNOW  32  30  93 W24G33    29.55R WCI  19
$$
NOTE: THESE ARE AUTOMATED STATIONS WITH LIMITED QUALITY CONTROL
      "FAIR" INDICATES FEW OR NO CLOUDS BELOW 12,000 FEET WITH NO
      SIGNIFICANT WEATHER AND/OR OBSTRUCTIONS TO VISIBILITY.
      SKY/WX - SKY CONDITION AND SIGNIFICANT WEATHER.
      TMP - AIR TEMPERATURE.    DP   - DEWPOINT TEMPERATURE.
      RH  - RELATIVE HUMIDITY.  PRES - PRESSURE.
      HX  - HEAT INDEX.         WCI  - WIND CHILL INDEX.
$



USA.gov is the U.S. government's official web portal to all federal, state and local government web resources and services.